Wind_Speed
32 33 37 37 35 37 41 42 46 44 43 39 39 44 46 46 47 48 48 49 50 52 53 54 55 55 56 57 58 59 60 62 63 66 68 69 71 72 73 72 72 70 69 68
34 35 39 39 35 37 40 43 45 46 45 41 44 47 47 47 49 49 50 51 52 53 54 55 56 57 57 57 58 59 61 63 64 66 68 69 70 71 72 71 71 70 68 67
39 38 41 39 36 37 40 42 44 46 45 44 46 47 48 48 50 50 51 52 53 54 56 57 57 57 58 58 59 60 62 64 65 66 68 69 69 70 70 70 69 68 67 66
44 43 44 40 38 39 41 41 42 44 45 46 47 48 48 50 51 51 52 54 55 56 57 58 58 58 59 59 60 62 63 64 66 67 68 68 69 69 69 69 68 67 66 64
47 48 48 42 40 42 43 42 42 45 46 47 49 50 49 50 52 53 55 56 57 59 59 59 60 60 60 61 62 63 64 65 66 67 68 68 68 68 68 67 67 66 65 63
48 50 51 46 44 45 46 45 45 47 48 49 51 53 52 52 54 55 56 58 59 60 61 61 62 62 63 63 63 64 66 66 67 67 68 68 67 66 66 65 65 65 64 62
49 52 53 48 48 47 47 47 49 50 52 53 54 56 57 57 58 58 59 60 62 62 63 63 64 65 65 65 65 67 67 68 68 68 68 67 66 65 64 63 63 63 62 61
52 55 53 50 50 49 50 51 52 53 55 57 58 59 60 60 61 62 62 63 64 64 64 64 65 66 66 66 67 67 67 67 67 67 66 65 64 63 61 61 61 61 61 60
57 57 54 54 53 53 55 57 57 58 59 60 61 62 63 64 64 64 65 65 65 66 65 65 65 65 65 65 65 65 65 64 64 64 64 63 62 60 59 58 58 59 59 58
59 58 56 56 56 57 59 62 62 62 62 63 64 64 65 65 65 65 65 65 65 64 63 63 63 62 62 62 62 62 62 61 62 62 62 60 59 57 56 56 56 56 57 56
61 58 59 58 58 59 61 62 63 63 63 64 65 65 65 65 64 64 63 62 62 62 61 61 61 60 60 60 59 59 59 59 59 59 58 56 55 55 54 54 54 54 54 54
60 58 62 62 60 61 61 61 61 61 61 62 63 64 63 62 62 61 61 60 60 59 59 58 58 58 58 58 57 57 57 57 57 56 54 53 52 52 52 52 52 52 53 52
58 58 61 61 61 61 61 60 59 59 59 59 59 60 60 59 59 58 58 57 57 56 55 55 55 55 55 56 56 56 55 55 55 54 52 50 49 49 50 50 50 50 51 50
52 54 56 57 58 58 58 58 58 57 57 56 56 55 55 55 54 54 54 54 53 53 53 53 54 54 55 55 55 55 54 54 53 52 51 49 48 47 47 47 48 48 49 49
46 48 49 50 51 52 53 53 53 53 52 52 52 52 51 51 51 51 52 53 53 53 54 55 55 55 55 55 55 55 54 53 52 51 49 47 46 45 45 45 45 46 46 46
42 42 43 44 45 46 47 48 49 49 50 50 50 51 51 52 52 52 53 54 54 54 55 55 56 56 55 54 53 53 53 52 50 49 47 45 43 43 43 43 43 44 44 44
42 42 43 43 43 44 45 46 48 48 49 49 50 50 51 52 53 53 54 54 55 56 56 56 56 55 54 54 53 51 51 50 49 47 45 44 42 41 41 41 41 42 42 42
44 44 45 45 46 47 47 48 48 49 50 51 52 52 52 53 54 54 55 56 57 57 58 58 57 56 55 54 52 51 50 49 47 46 44 42 40 39 39 39 39 40 40 40
44 45 46 48 49 50 51 52 53 53 53 54 53 53 54 55 56 57 57 57 57 57 58 58 58 57 56 54 52 51 50 49 47 45 43 40 38 37 36 36 37 37 38 38
43 44 46 48 50 51 52 52 52 53 54 55 55 55 56 57 58 58 58 59 60 60 59 58 57 56 55 54 53 52 50 48 47 44 42 39 36 35 34 34 35 35 36 35
45 46 47 48 49 49 50 51 52 52 53 54 55 56 57 58 58 60 61 61 61 62 62 60 59 57 56 55 53 51 48 46 44 42 39 36 34 33 32 32 32 33 34 33
46 47 48 48 48 48 49 50 51 52 53 54 56 58 59 59 60 62 64 64 64 64 63 62 60 59 57 54 51 48 45 42 40 39 37 34 31 30 30 30 30 31 31 31
47 48 48 48 49 49 49 51 52 53 54 55 57 59 60 61 63 64 64 64 64 63 62 60 58 56 53 50 46 43 40 38 37 35 33 30 28 27 28 28 28 28 29 29
48 49 49 50 50 51 51 51 52 54 55 57 59 60 62 63 63 63 62 61 60 59 57 55 52 50 46 42 39 36 35 34 32 30 28 27 25 25 25 25 25 26 26 27
49 50 50 51 51 51 51 52 52 54 56 57 57 59 60 60 59 57 56 55 54 53 50 48 46 42 38 33 31 29 28 28 27 25 24 23 22 22 22 23 23 23 24 25
50 50 50 50 51 51 51 52 53 54 55 55 55 56 55 55 54 53 52 52 50 47 45 41 38 35 31 28 26 24 23 23 22 21 20 19 20 20 20 20 20 21 21 23
49 49 49 49 50 51 51 52 53 53 54 53 53 52 51 50 49 49 49 48 45 42 39 34 31 28 25 23 21 20 20 19 18 18 18 17 18 18 17 18 18 18 19 21
Wind_Direction
283 283 282 282 281 280 281 283 284 287 287 291 289 286 289 293 296 299 301 303 305 307 308 311 313 315 317 320 322 324 326 328 329 331 333 334 335 337 338 340 341 342 344 345
282 282 282 284 287 285 283 283 285 286 288 291 287 288 290 293 295 297 298 300 302 303 306 308 311 313 315 318 320 322 324 326 327 329 331 332 334 335 337 339 340 342 343 345
284 283 283 286 290 286 285 285 285 286 289 287 287 288 290 292 292 294 296 297 299 301 304 306 309 311 314 316 318 319 321 323 325 327 329 331 332 333 336 337 339 341 343 345
285 284 284 289 290 289 287 287 288 287 287 286 287 288 290 291 291 293 294 296 297 299 302 305 307 310 312 314 316 317 319 321 323 324 327 329 330 332 334 336 338 340 342 344
284 286 287 290 291 290 289 289 289 287 287 286 285 286 287 289 290 292 293 294 296 299 301 304 306 308 310 311 313 315 316 318 320 322 325 326 328 330 332 334 336 339 341 344
283 285 287 293 293 292 291 291 289 288 287 286 286 286 287 287 288 290 291 294 296 298 301 303 305 307 308 310 311 312 314 316 318 320 322 324 326 328 330 332 335 337 340 343
283 284 286 292 293 293 293 292 289 289 288 287 287 288 289 289 290 291 293 295 297 299 301 302 304 305 306 308 309 310 312 314 315 318 320 322 324 326 328 330 333 336 339 342
283 283 288 290 290 290 289 288 287 286 286 286 287 288 288 289 290 292 293 295 297 298 300 301 302 303 304 305 306 308 310 312 314 316 318 319 322 324 326 329 331 335 338 340
281 283 286 286 287 287 286 285 284 284 284 285 286 287 288 290 291 292 294 295 296 297 299 300 300 301 303 304 304 306 308 310 312 314 317 318 320 323 324 327 330 333 337 339
281 283 284 284 284 284 283 283 283 284 285 285 287 288 290 291 292 293 295 296 297 298 299 299 300 301 303 303 304 306 307 309 311 313 316 318 319 321 323 325 329 332 335 338
282 284 283 282 281 282 282 283 284 285 286 287 288 289 291 293 294 294 295 295 296 297 298 299 300 301 302 302 304 305 307 309 311 313 315 317 319 320 321 323 327 330 334 337
282 283 282 282 283 283 284 285 286 287 287 288 289 291 292 293 294 294 295 296 297 298 298 298 299 300 300 301 302 304 306 308 310 313 314 316 318 319 320 321 325 329 333 336
281 281 281 281 282 283 285 286 287 288 289 290 291 292 293 294 295 295 296 297 297 298 299 300 300 300 300 300 302 304 306 307 309 311 313 315 316 318 318 320 323 327 331 335
281 281 281 281 282 284 285 286 287 289 290 291 292 293 295 296 297 297 297 297 298 299 299 299 300 300 300 301 302 303 305 307 309 310 312 313 315 316 316 318 321 325 329 333
284 284 285 285 285 286 287 287 288 290 291 292 294 295 296 296 297 298 298 299 299 299 299 299 299 299 299 300 301 302 303 305 307 309 310 312 313 315 315 316 319 323 327 332
286 286 288 289 290 290 290 291 291 292 292 292 293 294 295 296 297 298 298 298 298 298 298 298 298 298 298 299 299 300 301 303 305 307 308 310 312 313 313 314 317 321 326 330
287 288 290 291 291 291 291 292 292 293 292 292 293 295 296 297 297 298 298 298 299 298 298 297 297 298 298 298 298 298 299 300 302 304 306 308 310 312 311 312 315 320 324 329
286 287 288 289 290 290 290 292 293 293 294 295 296 297 297 298 299 299 300 300 300 300 299 297 296 296 296 295 295 295 295 297 299 300 301 305 308 309 309 310 313 318 323 328
288 288 288 289 290 291 292 293 293 294 295 297 298 298 299 300 301 302 302 302 302 301 300 298 297 295 293 291 292 292 292 292 294 296 298 301 304 306 306 307 311 316 321 326
290 291 292 292 293 294 295 296 296 296 297 298 300 300 301 302 303 303 303 303 303 303 302 301 298 296 293 291 290 289 288 288 289 291 294 297 300 301 302 305 309 314 319 325
291 293 293 294 295 295 296 297 297 298 299 300 301 302 303 303 303 303 303 303 303 302 302 301 299 297 294 291 289 287 285 284 284 285 288 292 295 297 299 302 307 313 318 324
292 293 294 295 296 297 297 298 299 301 302 303 304 304 305 305 304 304 305 305 304 303 302 300 298 296 294 290 287 284 282 280 278 279 281 286 289 292 295 299 305 311 317 323
294 295 295 296 297 298 299 300 301 303 304 305 306 306 306 307 307 306 306 305 304 304 303 301 298 296 293 289 284 280 277 275 273 272 275 279 282 286 291 296 303 310 315 322
294 295 296 296 297 298 299 300 303 304 306 307 308 308 309 309 309 309 309 308 307 306 305 303 300 297 293 287 281 276 271 269 267 267 268 270 275 280 287 293 301 308 315 321
294 295 296 296 297 298 300 302 304 305 307 308 309 310 311 312 313 313 313 313 312 310 308 306 302 298 292 285 278 273 267 263 261 259 258 262 268 274 282 291 299 307 314 321
294 295 296 297 298 299 301 302 304 306 307 309 310 312 313 314 315 316 317 316 316 315 313 310 306 301 292 282 275 269 262 257 252 247 248 255 262 270 279 289 297 305 314 322
294 295 296 297 298 299 301 303 305 307 309 311 312 313 314 316 316 317 318 319 318 317 317 314 310 304 294 282 270 259 252 248 241 238 243 250 256 266 277 287 295 304 315 323
Height
5815 5812 5807 5806 5806 5803 5798 5794 5790 5789 5787 5788 5783 5775 5770 5767 5762 5757 5752 5746 5740 5733 5726 5719 5712 5704 5696 5687 5678 5669 5659 5648 5637 5625 5613 5600 5586 5572 5558 5543 5527 5512 5496 5480
5807 5804 5798 5797 5798 5795 5790 5786 5782 5778 5776 5777 5769 5764 5760 5757 5752 5747 5742 5735 5729 5722 5716 5709 5701 5694 5686 5678 5668 5659 5649 5639 5628 5616 5604 5591 5578 5565 5551 5536 5521 5506 5491 5475
5796 5795 5790 5790 5791 5785 5781 5778 5773 5768 5767 5764 5759 5754 5750 5746 5740 5735 5730 5724 5718 5711 5705 5698 5691 5683 5675 5667 5658 5649 5639 5629 5618 5607 5595 5583 5570 5557 5543 5529 5514 5500 5485 5470
5785 5784 5780 5785 5780 5775 5771 5769 5764 5759 5756 5752 5747 5743 5739 5734 5728 5724 5718 5712 5706 5699 5693 5687 5679 5672 5665 5657 5648 5638 5628 5618 5608 5597 5586 5574 5562 5549 5536 5522 5508 5494 5479 5465
5774 5770 5768 5773 5771 5764 5760 5759 5754 5747 5743 5739 5734 5731 5729 5722 5716 5711 5705 5699 5693 5687 5681 5675 5668 5660 5653 5645 5636 5627 5617 5608 5598 5587 5576 5565 5554 5542 5529 5516 5502 5488 5474 5460
5764 5759 5756 5762 5758 5752 5748 5746 5741 5735 5730 5726 5721 5718 5716 5710 5704 5698 5692 5686 5681 5675 5669 5663 5655 5648 5641 5633 5624 5615 5606 5597 5587 5577 5567 5556 5545 5534 5522 5509 5496 5483 5469 5456
5753 5747 5746 5751 5745 5740 5737 5734 5728 5722 5716 5711 5707 5703 5700 5695 5690 5684 5679 5673 5667 5662 5656 5650 5642 5634 5627 5619 5611 5603 5594 5586 5576 5567 5557 5547 5537 5526 5514 5502 5490 5477 5465 5452
5741 5736 5738 5738 5732 5728 5723 5718 5713 5707 5702 5697 5692 5688 5684 5680 5675 5670 5665 5660 5653 5647 5642 5636 5628 5620 5613 5606 5598 5590 5582 5574 5565 5556 5547 5537 5528 5518 5507 5495 5484 5471 5459 5446
5728 5727 5726 5722 5718 5714 5707 5702 5697 5692 5688 5682 5677 5673 5669 5665 5660 5655 5650 5644 5638 5632 5627 5621 5613 5606 5599 5592 5584 5577 5569 5562 5553 5545 5537 5528 5519 5509 5499 5488 5477 5465 5453 5441
5712 5713 5712 5707 5702 5697 5691 5684 5680 5676 5672 5667 5661 5658 5654 5650 5645 5640 5635 5629 5623 5617 5611 5606 5599 5592 5585 5577 5570 5563 5556 5549 5542 5534 5526 5518 5510 5501 5491 5481 5471 5460 5448 5436
5695 5697 5693 5690 5686 5680 5674 5669 5665 5661 5656 5651 5645 5641 5638 5634 5629 5624 5619 5613 5607 5602 5596 5591 5584 5578 5571 5564 5557 5551 5544 5538 5530 5523 5516 5508 5501 5493 5484 5474 5465 5454 5443 5431
5678 5680 5671 5668 5667 5662 5657 5653 5649 5645 5641 5637 5630 5626 5622 5618 5613 5608 5603 5598 5592 5587 5581 5576 5570 5564 5557 5550 5544 5538 5532 5526 5519 5512 5505 5499 5492 5484 5476 5467 5458 5448 5437 5427
5663 5660 5654 5650 5648 5645 5640 5637 5634 5629 5625 5621 5617 5611 5607 5603 5598 5593 5588 5583 5578 5573 5567 5562 5556 5550 5544 5537 5532 5526 5520 5514 5508 5502 5495 5489 5482 5475 5468 5460 5451 5442 5432 5422
5647 5642 5637 5635 5632 5629 5625 5622 5619 5615 5610 5606 5602 5597 5593 5589 5584 5579 5574 5569 5564 5559 5554 5548 5543 5537 5531 5525 5519 5514 5508 5503 5497 5491 5485 5479 5473 5467 5460 5453 5445 5436 5427 5417
5632 5628 5624 5620 5617 5614 5610 5607 5604 5601 5597 5593 5588 5584 5579 5575 5571 5566 5561 5556 5551 5546 5540 5535 5529 5524 5518 5512 5507 5502 5496 5491 5486 5480 5475 5469 5464 5458 5452 5445 5438 5430 5422 5412
5619 5615 5611 5608 5604 5601 5598 5594 5591 5588 5584 5580 5576 5571 5566 5562 5558 5553 5547 5542 5537 5532 5526 5520 5515 5509 5504 5499 5494 5489 5484 5479 5475 5470 5465 5460 5454 5449 5444 5438 5431 5424 5416 5407
5607 5604 5601 5597 5593 5590 5586 5582 5578 5574 5571 5567 5563 5558 5554 5549 5544 5539 5534 5527 5521 5516 5510 5504 5499 5494 5489 5484 5480 5475 5471 5467 5463 5459 5454 5450 5446 5441 5436 5431 5424 5418 5410 5402
5596 5592 5589 5586 5582 5578 5575 5571 5566 5562 5558 5554 5550 5545 5540 5535 5530 5525 5519 5513 5506 5500 5493 5487 5482 5477 5473 5469 5465 5461 5458 5455 5451 5448 5444 5440 5436 5432 5428 5423 5418 5411 5404 5396
5584 5581 5577 5573 5569 5565 5562 5558 5554 5549 5545 5540 5536 5531 5526 5520 5514 5508 5502 5496 5489 5483 5477 5470 5464 5459 5455 5452 5449 5446 5443 5441 5439 5436 5433 5431 5427 5424 5420 5416 5411 5405 5399 5391
5573 5569 5565 5561 5557 5552 5548 5544 5540 5536 5531 5526 5521 5516 5511 5505 5498 5492 5486 5480 5471 5464 5459 5452 5446 5441 5437 5434 5432 5430 5428 5426 5425 5424 5423 5421 5418 5415 5412 5408 5404 5399 5393 5386
5561 5558 5553 5549 5545 5540 5535 5531 5526 5522 5517 5512 5506 5501 5496 5489 5482 5475 5469 5463 5456 5447 5440 5434 5428 5423 5419 5416 5414 5413 5412 5411 5411 5411 5411 5410 5409 5407 5404 5401 5397 5393 5387 5381
5549 5545 5541 5537 5533 5529 5524 5518 5513 5509 5504 5498 5492 5485 5479 5473 5466 5459 5451 5442 5436 5428 5421 5414 5408 5403 5400 5397 5396 5396 5396 5396 5397 5398 5399 5400 5399 5398 5396 5394 5390 5386 5382 5376
5536 5532 5528 5524 5520 5516 5512 5506 5501 5495 5490 5484 5477 5470 5463 5456 5448 5440 5433 5425 5415 5407 5400 5394 5388 5384 5380 5378 5378 5379 5380 5382 5384 5386 5388 5389 5390 5390 5388 5386 5384 5380 5376 5371
5523 5519 5515 5511 5507 5503 5499 5494 5489 5483 5477 5470 5462 5454 5446 5439 5432 5421 5411 5404 5395 5388 5381 5375 5369 5365 5362 5361 5362 5364 5366 5368 5371 5374 5377 5379 5381 5381 5381 5379 5377 5374 5370 5366
5509 5506 5502 5498 5494 5490 5486 5482 5476 5470 5464 5457 5449 5440 5431 5422 5414 5406 5396 5387 5379 5371 5365 5359 5353 5350 5348 5347 5349 5351 5354 5357 5360 5363 5367 5370 5372 5373 5373 5372 5371 5368 5365 5361
5496 5492 5489 5485 5480 5477 5473 5468 5463 5457 5450 5444 5437 5428 5419 5410 5402 5393 5385 5376 5368 5359 5352 5347 5342 5339 5337 5337 5339 5341 5344 5347 5350 5355 5358 5362 5364 5366 5366 5366 5364 5362 5359 5356
5483 5479 5476 5472 5468 5463 5459 5454 5449 5443 5436 5430 5424 5417 5408 5400 5392 5383 5375 5367 5358 5350 5343 5338 5333 5330 5329 5329 5330 5333 5336 5340 5344 5348 5351 5354 5357 5359 5360 5359 5359 5357 5355 5351